Voltar ao catálogo

STARLINK-36393

AtivoComunicaçõesVLEO
NORAD 67859·PAYLOAD·🇺🇸 United States

Lançado Feb 20, 2026 de Vandenberg Space Force Base

Loading…

Próximas Passagens (próximas 24 horas)

TLE

AtualizadoSource: CelesTrak SupGP

Época: Sep 14, 2026, 21:43 UTC

1 67859C 26034K   26257.90534722  .00040325  00000+0  12971-2 0  2576
2 67859  53.1587  43.4922 0001255  81.0074 206.9474 15.31673910    12

Acompanhe STARLINK-36393 em tempo real com AllMySat

Download on the App Store